Temp
11 17 17 13 13 13 14 15 15 15 12 13 14 14 15 12 11 13 13 12 11 10 11 11 11 11 11 11 11 11 11 10 10 10 10 10 9 10 10 10 10 10 10 10
15 15 12 11 11 12 13 15 16 15 11 12 14 14 14 12 12 12 12 12 11 10 10 10 10 10 11 11 10 10 10 10 10 10 10 10 10 10 10 10 10 10 10 10
15 12 10 11 12 13 13 15 14 13 12 12 11 14 13 13 12 11 10 10 10 9 10 10 10 10 10 10 10 10 10 10 9 9 9 9 9 9 9 8 9 9 9 9
12 10 11 12 12 12 15 11 11 11 12 17 11 19 15 14 13 12 11 11 10 9 9 10 10 10 10 10 10 10 9 9 9 9 9 9 8 8 8 8 8 9 9 9
11 11 11 12 11 11 12 9 10 10 12 12 13 14 16 13 13 13 11 10 9 9 10 10 10 10 10 10 10 9 9 9 9 9 9 8 8 8 8 8 9 8 8 8
10 8 10 11 10 10 9 10 10 9 11 14 12 13 18 15 14 13 11 9 8 9 9 9 10 9 9 9 9 9 9 9 9 9 8 8 8 8 8 8 8 9 9 9
11 11 10 9 11 10 10 12 14 14 13 16 10 13 17 13 12 13 11 10 8 8 8 9 9 9 9 9 8 8 8 8 8 8 8 8 8 8 8 8 8 8 8 8
13 13 11 9 11 12 11 12 14 13 15 16 10 14 16 12 10 10 9 9 8 8 8 8 8 8 8 8 8 8 8 8 8 8 8 8 8 8 8 8 8 8 8 8
13 13 9 8 8 9 11 12 10 10 8 10 14 14 13 10 10 10 9 9 8 8 8 8 8 7 7 7 7 7 7 7 7 7 7 7 7 7 8 8 8 8 8 8
10 12 9 8 8 8 9 9 11 10 11 12 14 13 15 10 11 10 10 9 8 8 8 7 7 7 7 6 6 6 7 7 7 7 7 7 7 7 7 7 7 7 7 7
10 11 10 8 9 11 9 10 9 9 10 12 12 15 12 11 12 11 10 8 7 7 7 6 6 6 6 6 6 6 6 6 6 6 7 6 7 7 7 7 7 6 6 6
9 11 11 12 7 7 8 10 10 11 10 9 8 11 9 9 9 10 9 7 6 6 6 7 6 6 5 5 5 5 5 5 5 6 6 6 6 5 5 5 5 5 6 5
9 9 10 10 8 7 8 8 8 6 7 9 10 12 9 9 9 8 8 7 7 6 6 5 5 5 4 5 5 4 5 5 5 5 5 5 4 4 4 4 4 4 4 4
8 8 10 12 12 10 8 8 8 8 7 9 10 11 12 12 11 8 7 7 6 5 4 4 4 4 4 4 4 4 4 4 4 4 3 3 3 3 3 3 3 3 3 3
8 6 9 10 10 8 9 9 9 6 8 8 10 10 11 10 8 5 4 4 4 4 4 4 4 4 3 3 3 4 3 3 3 3 3 2 2 2 2 2 2 2 2 2
5 6 2 4 7 8 7 7 8 8 8 8 8 8 6 5 5 4 4 3 4 4 3 4 4 3 3 3 3 3 2 2 1 2 1 0 1 1 1 1 1 2 2 2
6 5 4 7 5 5 5 7 7 7 7 7 6 6 3 4 3 2 2 3 3 3 3 3 3 2 2 3 2 2 2 1 1 1 0 0 0 1 1 0 1 1 1 1
5 4 5 6 4 5 7 6 6 6 3 4 4 3 2 2 2 2 2 2 2 3 3 3 3 3 3 2 1 1 1 1 0 -0 -1 -1 -0 0 0 0 0 1 0 0
4 6 5 5 5 7 7 4 4 5 4 2 2 2 2 2 2 3 3 2 2 1 1 1 2 2 1 1 1 0 1 -0 -1 -0 -1 -1 -1 -0 -0 0 0 0 -0 0
2 4 5 4 4 5 5 4 3 4 5 2 1 2 2 1 2 4 2 -0 -0 -0 -0 0 0 0 -0 -0 -0 -1 -1 -1 -0 -1 -1 -1 -1 -1 -0 -0 -0 -0 -0 -0
2 2 3 4 4 6 3 3 3 4 4 2 1 1 0 1 1 0 -1 -1 -1 -1 -1 -1 -1 -1 -1 -1 -1 -1 -1 -1 -1 -1 -1 -1 -1 -1 -1 -1 -1 -1 -1 -2
3 3 3 4 3 3 2 3 3 3 1 1 -0 -1 -1 -1 -1 -2 -2 -2 -2 -2 -2 -2 -2 -2 -2 -1 -1 -1 -1 -1 -1 -1 -1 -1 -1 -1 -1 -1 -1 -1 -2 -3
2 4 4 4 5 2 1 1 0 0 -0 -0 -1 -1 -1 -2 -2 -2 -2 -2 -2 -2 -1 -1 -1 -1 -1 -1 -1 -1 -1 -1 -2 -2 -1 -1 -2 -1 -1 -2 -2 -3 -3 -3
2 -0 2 2 3 3 1 1 0 -0 -0 -1 -1 -1 -2 -2 -2 -2 -2 -2 -1 -1 -1 -1 -2 -2 -2 -1 -1 -1 -1 -1 -1 -2 -2 -2 -2 -2 -2 -3 -4 -4 -4 -4
1 -0 1 1 1 1 1 0 -0 -1 -1 -1 -1 -1 -2 -2 -2 -2 -2 -2 -2 -2 -2 -2 -2 -2 -1 -1 -2 -2 -2 -2 -3 -3 -3 -3 -3 -3 -3 -3 -4 -3 -3 -4
-1 1 1 1 1 1 0 -0 -1 -1 -1 -1 -2 -2 -2 -2 -2 -2 -2 -2 -2 -3 -3 -3 -3 -3 -3 -3 -3 -3 -3 -3 -4 -4 -4 -4 -4 -4 -4 -4 -4 -2 -3 -2
Height
1532 1528 1530 1539 1542 1541 1540 1538 1537 1535 1541 1538 1531 1529 1526 1528 1528 1528 1529 1531 1531 1531 1530 1529 1529 1528 1527 1526 1525 1524 1522 1521 1520 1519 1518 1516 1515 1513 1511 1509 1507 1505 1504 1502
1531 1533 1544 1545 1545 1543 1542 1538 1533 1535 1541 1540 1530 1526 1526 1530 1530 1530 1530 1530 1530 1530 1530 1530 1529 1528 1526 1525 1524 1524 1522 1521 1520 1519 1517 1516 1514 1512 1510 1508 1506 1503 1501 1500
1529 1543 1546 1546 1545 1541 1542 1537 1539 1543 1540 1539 1537 1522 1525 1529 1530 1530 1530 1530 1530 1529 1529 1529 1528 1527 1526 1524 1523 1523 1522 1521 1520 1518 1517 1515 1513 1511 1510 1507 1505 1503 1500 1497
1539 1546 1546 1545 1543 1544 1538 1546 1547 1547 1543 1525 1539 1509 1519 1523 1526 1528 1529 1529 1529 1528 1528 1527 1527 1526 1524 1523 1523 1522 1521 1520 1519 1517 1516 1514 1512 1510 1508 1507 1504 1501 1499 1497
1544 1545 1544 1542 1545 1547 1545 1550 1549 1549 1543 1541 1532 1530 1511 1523 1523 1525 1528 1529 1529 1528 1528 1527 1525 1524 1523 1523 1522 1521 1520 1519 1518 1517 1515 1513 1511 1509 1506 1503 1501 1499 1497 1495
1545 1547 1546 1545 1547 1548 1550 1549 1549 1549 1543 1532 1534 1531 1500 1514 1516 1521 1527 1528 1528 1528 1527 1526 1524 1523 1523 1522 1521 1520 1519 1518 1516 1515 1513 1511 1510 1508 1506 1503 1500 1497 1494 1492
1543 1544 1546 1547 1545 1547 1546 1542 1533 1535 1536 1520 1538 1530 1502 1515 1519 1519 1524 1527 1528 1528 1527 1526 1525 1525 1524 1523 1522 1521 1519 1517 1515 1513 1511 1509 1507 1505 1503 1501 1499 1496 1494 1491
1538 1540 1546 1549 1547 1543 1543 1541 1533 1539 1526 1518 1539 1517 1503 1517 1521 1523 1524 1526 1527 1527 1526 1525 1525 1524 1523 1523 1522 1521 1519 1517 1515 1513 1510 1508 1506 1503 1501 1498 1496 1494 1491 1489
1538 1538 1550 1550 1551 1552 1544 1542 1549 1545 1556 1542 1514 1512 1514 1521 1523 1524 1526 1527 1527 1527 1526 1525 1524 1524 1523 1522 1521 1520 1518 1516 1515 1513 1510 1508 1505 1502 1499 1496 1493 1490 1488 1485
1544 1540 1550 1552 1553 1553 1549 1551 1544 1545 1544 1532 1512 1516 1502 1518 1519 1523 1525 1526 1527 1526 1526 1525 1524 1524 1522 1521 1519 1517 1515 1514 1512 1511 1509 1506 1504 1501 1498 1494 1490 1487 1483 1481
1543 1542 1548 1551 1547 1541 1549 1546 1550 1550 1544 1534 1528 1506 1513 1516 1516 1520 1523 1525 1525 1525 1525 1524 1523 1523 1521 1520 1519 1517 1514 1513 1510 1508 1505 1503 1500 1497 1493 1489 1486 1482 1478 1475
1544 1540 1538 1534 1547 1548 1545 1541 1539 1538 1543 1543 1545 1518 1517 1518 1519 1519 1523 1524 1524 1523 1522 1519 1518 1518 1518 1518 1517 1515 1512 1510 1507 1504 1502 1499 1495 1492 1488 1484 1480 1476 1472 1469
1544 1546 1543 1538 1550 1550 1545 1543 1542 1547 1545 1532 1527 1507 1517 1517 1518 1520 1521 1522 1521 1518 1516 1516 1515 1515 1515 1515 1514 1512 1509 1506 1502 1499 1496 1493 1490 1486 1482 1478 1475 1471 1468 1464
1541 1541 1534 1526 1527 1535 1541 1542 1543 1540 1541 1523 1516 1503 1510 1511 1513 1520 1521 1519 1518 1515 1513 1512 1512 1512 1511 1510 1508 1506 1504 1501 1497 1494 1491 1488 1485 1482 1477 1473 1469 1465 1461 1456
1545 1545 1535 1529 1528 1531 1527 1528 1528 1533 1526 1526 1502 1508 1508 1512 1518 1520 1520 1518 1516 1514 1514 1514 1512 1510 1509 1507 1505 1503 1499 1496 1492 1487 1484 1481 1477 1475 1472 1468 1464 1461 1457 1453
1543 1539 1548 1543 1532 1531 1528 1527 1523 1523 1521 1516 1511 1511 1519 1523 1523 1521 1519 1517 1515 1514 1512 1510 1509 1506 1503 1502 1499 1496 1494 1490 1486 1481 1477 1474 1470 1467 1464 1462 1457 1455 1450 1446
1539 1540 1541 1523 1532 1534 1525 1512 1513 1514 1514 1517 1515 1516 1522 1521 1522 1521 1520 1517 1515 1513 1511 1508 1505 1503 1499 1496 1492 1488 1485 1482 1479 1473 1469 1467 1465 1461 1458 1456 1450 1447 1443 1440
1537 1541 1539 1529 1536 1523 1508 1513 1513 1513 1522 1521 1521 1524 1526 1525 1523 1521 1518 1514 1512 1509 1506 1503 1499 1495 1491 1487 1483 1480 1477 1474 1470 1466 1461 1460 1458 1455 1451 1448 1443 1440 1436 1433
1535 1536 1535 1533 1527 1507 1505 1516 1515 1512 1518 1523 1524 1523 1523 1522 1517 1513 1513 1511 1508 1504 1501 1497 1491 1487 1483 1479 1475 1471 1468 1466 1462 1458 1455 1453 1451 1447 1444 1440 1435 1433 1429 1426
1535 1534 1533 1535 1533 1515 1513 1519 1519 1518 1508 1523 1524 1522 1519 1516 1510 1502 1508 1505 1500 1497 1492 1488 1483 1479 1475 1472 1468 1463 1460 1457 1455 1452 1449 1446 1444 1440 1436 1432 1429 1426 1423 1419
1533 1533 1531 1525 1522 1508 1516 1519 1518 1515 1512 1518 1519 1518 1516 1514 1512 1502 1500 1498 1495 1488 1483 1479 1474 1470 1465 1462 1459 1456 1453 1450 1448 1446 1442 1438 1435 1431 1428 1424 1421 1418 1414 1411
1523 1528 1526 1525 1525 1519 1516 1518 1517 1516 1516 1517 1515 1513 1510 1507 1502 1498 1493 1490 1485 1479 1474 1471 1465 1460 1456 1454 1452 1450 1447 1444 1441 1438 1434 1430 1426 1423 1419 1415 1412 1409 1406 1402
1523 1519 1516 1518 1510 1515 1516 1517 1517 1516 1514 1513 1511 1508 1504 1501 1497 1493 1489 1484 1479 1475 1470 1464 1460 1455 1452 1449 1446 1442 1439 1436 1433 1428 1424 1420 1417 1413 1410 1406 1402 1398 1396 1394
1520 1522 1519 1518 1513 1514 1514 1514 1513 1512 1509 1506 1504 1501 1498 1494 1491 1488 1483 1478 1474 1470 1465 1460 1454 1449 1445 1442 1439 1435 1430 1427 1423 1418 1415 1411 1407 1403 1400 1397 1393 1388 1386 1385
1519 1520 1517 1514 1514 1512 1510 1510 1509 1507 1504 1500 1497 1494 1491 1488 1484 1481 1477 1471 1466 1461 1456 1451 1446 1441 1437 1434 1430 1426 1422 1418 1413 1409 1404 1400 1397 1393 1389 1386 1382 1379 1375 1374
1515 1512 1512 1507 1509 1509 1505 1505 1504 1501 1497 1493 1490 1486 1484 1481 1477 1472 1466 1461 1457 1451 1445 1440 1436 1433 1428 1424 1420 1415 1411 1408 1403 1399 1394 1391 1387 1383 1379 1375 1369 1367 1363 1362
Wind_Speed
3 2 4 5 4 4 3 0 3 1 2 6 3 11 11 8 3 9 8 6 5 5 6 4 2 2 3 4 4 4 5 5 4 5 6 6 7 10 10 10 11 10 11 14
2 5 4 4 3 1 0 2 1 2 1 5 7 14 1 1 4 5 6 5 5 5 4 5 5 6 5 5 5 5 7 7 6 6 7 8 9 10 10 11 11 12 12 12
4 5 3 2 2 1 1 2 3 4 9 3 9 5 7 5 5 5 5 4 4 4 4 4 4 4 5 6 7 7 7 8 8 9 10 10 11 11 12 12 13 14 16 16
6 2 2 3 2 2 1 2 2 6 6 4 2 3 7 8 6 5 4 3 4 3 4 5 4 5 6 6 7 7 7 8 9 10 10 11 11 10 11 14 14 14 14 16
3 2 2 2 2 1 3 2 3 3 5 4 2 5 5 5 7 7 4 3 4 4 5 6 7 8 8 8 6 6 7 8 9 9 10 11 12 13 13 13 14 14 14 14
3 0 1 2 1 1 2 1 2 2 3 4 1 3 4 5 4 9 6 4 4 5 5 6 6 6 6 7 6 6 6 6 6 8 9 10 11 12 13 14 14 14 14 14
2 1 1 0 2 3 2 2 2 2 3 1 2 4 4 3 3 7 9 7 5 4 4 4 3 3 3 3 4 4 5 6 7 7 7 9 10 11 12 14 15 16 16 16
3 3 3 2 3 3 1 3 3 4 3 2 2 6 1 4 5 7 6 6 4 3 2 1 1 1 2 3 3 3 4 5 6 7 8 10 10 11 13 14 16 18 19 19
1 1 2 4 3 2 2 3 4 1 1 3 3 4 6 4 6 7 8 7 5 3 2 3 4 4 3 1 1 2 4 5 8 10 11 12 14 14 15 16 17 19 20 21
2 2 1 2 1 4 3 3 1 0 3 4 3 5 6 8 11 10 9 8 6 7 4 6 6 6 6 5 3 3 5 7 9 12 14 16 17 18 19 19 20 20 22 23
4 2 3 2 6 3 3 2 1 1 3 3 5 2 3 1 8 13 12 6 4 7 7 6 9 9 8 6 5 7 8 10 12 15 17 19 21 22 23 23 24 24 24 24
2 2 4 3 3 0 2 3 5 3 4 3 3 8 2 2 5 13 12 6 7 11 13 11 13 14 9 5 7 9 11 14 16 18 21 23 24 26 26 26 26 26 26 27
5 2 3 3 2 1 5 4 3 2 1 12 8 4 3 4 8 2 11 10 20 22 18 14 10 7 5 5 9 13 17 20 22 24 27 28 28 28 28 28 27 27 28 28
5 3 6 8 4 3 4 6 8 8 4 13 14 24 13 12 12 10 14 16 15 13 8 4 5 4 6 10 13 17 20 23 26 29 30 31 30 31 31 30 29 29 28 28
2 4 10 14 13 10 15 15 16 16 18 15 23 21 19 18 14 9 7 8 8 4 3 4 7 10 13 14 19 22 23 26 29 31 32 32 31 30 29 28 27 28 29 30
2 2 1 4 12 14 19 17 20 21 22 24 26 25 9 5 5 7 12 12 11 10 12 17 17 18 18 18 19 22 24 24 29 33 30 26 29 29 28 28 26 28 28 28
4 3 1 6 2 6 10 15 14 13 12 10 13 5 4 5 9 13 16 14 13 16 21 22 23 26 25 27 26 29 27 29 35 30 28 26 26 27 27 27 27 28 28 28
4 3 2 5 3 6 4 3 3 4 4 2 1 3 6 9 14 17 15 14 20 26 27 29 29 31 30 26 28 30 31 34 30 27 23 24 26 27 28 29 29 29 27 28
12 9 4 4 6 13 15 3 2 1 4 4 2 6 12 19 25 19 9 16 25 28 31 34 33 28 28 27 27 28 32 27 25 29 27 27 26 27 27 28 27 27 27 28
3 10 7 3 5 6 5 4 4 4 8 4 8 14 19 22 15 16 26 30 30 31 31 32 33 34 30 29 26 24 25 24 26 26 26 28 28 28 29 29 30 31 30 31
4 4 13 12 8 8 4 4 4 8 4 11 13 16 19 16 22 33 31 31 30 32 32 32 33 31 32 30 25 25 24 26 26 28 30 31 32 32 32 33 34 32 31 28
6 6 5 6 6 11 4 1 2 7 13 15 16 15 18 22 26 27 28 28 28 30 28 27 27 26 27 21 24 25 28 30 30 32 33 34 35 35 35 35 37 35 32 28
4 4 2 6 3 1 2 8 9 11 13 14 13 14 13 16 18 20 22 23 23 23 23 25 22 27 25 25 27 30 34 32 34 34 34 35 34 35 36 36 36 33 25 24
4 3 4 4 3 11 12 19 15 14 22 19 17 18 18 20 22 24 26 27 29 29 30 29 28 28 28 27 29 31 34 36 35 35 33 33 32 36 34 30 28 26 26 24
0 2 4 8 14 18 19 12 19 22 22 23 23 23 23 22 26 26 29 31 34 34 35 34 31 29 33 33 34 35 35 32 33 31 33 33 35 34 35 34 32 31 33 27
7 6 4 7 14 17 24 21 21 23 23 24 23 23 24 24 27 31 36 36 36 36 36 37 35 32 33 32 33 35 36 32 29 29 33 31 31 33 36 36 39 39 39 37
Wind_Direction
18 132 78 69 43 52 76 322 295 346 32 308 311 298 318 344 148 157 153 139 114 80 71 62 23 320 331 342 339 340 354 344 329 313 304 301 299 301 304 300 300 304 304 305
158 85 94 98 78 85 216 262 344 301 338 318 319 305 236 183 123 129 131 115 88 77 60 52 44 32 19 357 348 333 334 336 325 315 309 305 303 302 298 297 298 298 295 293
83 98 130 199 154 224 209 311 4 318 321 266 300 251 179 161 150 126 109 96 70 55 36 23 33 25 19 11 358 344 331 328 323 320 317 316 315 315 314 309 306 303 303 303
74 105 191 171 115 320 277 29 341 307 312 316 343 301 189 174 166 152 126 100 66 58 58 53 57 41 24 9 351 339 335 335 328 325 324 326 326 324 320 319 319 316 311 309
101 164 148 123 71 287 29 356 311 284 263 301 167 252 117 174 196 180 146 104 72 80 89 77 66 54 39 32 24 8 358 348 340 337 335 334 330 326 325 322 320 317 314 307
91 153 356 68 183 199 86 205 225 221 246 236 12 300 159 173 203 170 153 137 122 110 103 90 75 63 48 41 36 27 18 13 9 5 1 358 354 348 344 340 338 335 329 322
135 130 124 225 216 171 238 244 282 240 219 299 122 267 296 154 166 180 158 146 139 133 116 97 80 56 43 28 19 16 12 5 9 4 -0 358 357 354 352 347 344 342 339 336
205 227 182 50 342 333 323 292 265 265 248 303 164 237 148 137 134 138 141 145 142 132 103 62 4 351 351 351 360 12 13 14 13 11 7 3 357 353 349 345 342 339 335 331
264 195 83 38 17 349 119 236 0 74 46 270 242 261 203 147 150 149 136 126 92 57 338 292 278 263 256 258 316 13 10 0 352 353 350 347 345 343 340 336 333 329 327 324
116 265 57 91 15 85 261 113 227 13 281 268 231 275 272 187 193 176 158 125 71 32 340 280 265 257 246 240 248 301 321 333 342 342 342 340 336 332 329 326 322 318 316 314
167 217 139 179 198 189 162 194 73 310 290 290 305 214 39 15 222 205 192 165 44 4 348 272 261 260 253 251 279 310 327 335 341 339 335 331 327 325 321 318 315 313 311 310
172 204 226 214 127 284 235 203 204 218 187 225 264 271 136 306 260 232 206 220 307 320 310 290 256 247 237 266 311 325 328 329 330 330 327 325 323 321 320 318 315 313 311 312
172 219 291 198 131 182 240 203 188 94 331 233 254 246 132 82 79 159 224 288 312 308 299 277 248 233 251 292 317 326 325 324 325 324 323 320 318 316 314 312 311 311 312 312
171 200 229 258 331 117 208 203 213 219 223 268 242 271 266 277 305 327 303 302 310 316 311 241 217 242 280 299 311 320 318 319 319 319 319 317 316 314 310 308 307 307 307 309
247 230 240 251 262 248 255 256 241 224 233 250 273 275 290 310 327 335 330 332 333 331 308 269 291 296 297 298 304 307 310 313 315 312 311 309 310 309 306 303 301 300 302 305
180 244 31 270 266 274 279 269 256 255 258 260 270 281 8 38 4 355 355 345 337 330 312 288 288 299 289 287 293 301 305 306 309 308 305 304 308 308 305 300 299 301 303 304
196 207 285 276 57 315 272 257 259 244 245 254 266 328 2 354 352 344 326 318 313 318 313 307 296 293 290 291 292 294 300 302 304 299 298 299 302 301 300 299 300 301 303 304
188 160 234 291 298 254 82 346 278 240 27 352 167 33 352 326 313 309 302 297 304 307 307 303 296 291 286 286 293 298 300 303 299 298 297 299 301 297 297 298 301 301 301 301
226 227 244 253 243 297 276 64 62 234 159 88 30 339 326 321 314 302 305 309 302 299 300 298 293 287 289 291 293 294 297 295 295 299 299 299 296 298 299 300 304 304 303 304
146 230 212 188 250 269 80 29 344 234 256 84 342 323 321 324 309 304 317 312 306 300 301 301 294 290 289 295 294 287 289 290 291 294 297 297 296 297 298 299 298 299 298 298
138 181 217 227 248 267 96 333 318 255 340 323 318 311 309 300 292 298 303 303 300 299 299 297 294 291 288 289 288 286 291 292 296 300 299 297 296 298 298 297 297 295 294 292
187 180 200 224 249 266 77 145 287 338 312 306 303 305 306 306 305 305 308 307 306 304 304 308 307 297 292 288 289 294 297 300 302 300 296 294 294 296 297 297 298 294 292 288
226 229 218 226 247 49 268 291 294 292 293 300 290 299 311 308 310 309 307 307 307 303 305 312 306 311 310 300 295 295 299 298 300 298 295 293 293 293 295 295 294 291 285 281
204 184 247 313 258 289 296 300 303 296 302 298 287 291 295 301 305 306 304 306 305 303 301 302 301 300 301 301 301 301 304 304 299 295 295 291 288 291 291 288 283 282 283 282
232 158 237 263 283 294 286 285 299 295 293 290 287 285 287 294 298 300 301 300 299 298 297 297 292 290 295 300 302 304 304 300 294 291 291 290 289 288 288 289 285 283 285 276
195 208 218 277 295 282 284 289 293 289 289 292 285 290 288 294 294 296 294 294 296 296 297 297 295 289 291 295 294 297 301 298 292 287 291 290 288 287 288 286 290 292 289 288